Miscellaneous Local Product
Issued by NWS Hastings, NE

Home | Current Version | Previous Version | Graphics & Text | Print | Product List | Glossary On
Versions: 1 2 3 4 5 6 7 8 9 10 11 12 13 14 15 16 17 18 19 20 21 22 23 24 25 26 27 28 29 30 31 32 33 34 35 36 37 38 39 40 41 42 43 44 45 46 47 48 49 50
000
AXUS43 KGID 161202
MISGRI

GID CWA HOURLY WEATHER ROUNDUP
NATIONAL WEATHER SERVICE HASTINGS NE
700 AM CDT TUE SEP 16 2014

NOTE: "FAIR" INDICATES FEW OR NO CLOUDS BELOW 12,000 FEET WITH NO
SIGNIFICANT WEATHER AND/OR OBSTRUCTIONS TO VISIBILITY.

...SOUTH CENTRAL NEBRASKA...

CITY           SKY/WX    TMP DP  RH WIND       PRES   REMARKS
GRAND ISLAND   CLEAR     46  42  86 S7        30.22F
HASTINGS       CLEAR     45  41  86 S6        30.22S
KEARNEY        CLEAR     45  41  87 S7        30.22S
ORD            CLEAR     44  41  89 S6        30.19S
YORK           CLEAR     45  41  87 S5        30.23F
AURORA         CLEAR     45  42  89 S5        30.22F
LEXINGTON      PTCLDY    48  45  90 SE7       30.20S
HOLDREGE       CLEAR     45  43  92 CALM      30.21S
HEBRON         CLEAR     40  38  93 CALM      30.24S

...NEBRASKA PANHANDLE...

CITY           SKY/WX    TMP DP  RH WIND       PRES   REMARKS
CHADRON        CLEAR     46  46 100 W5        30.04F
ALLIANCE       MOCLDY    51  49  92 N3        30.06F
SCOTTSBLUFF    PTCLDY    49  48  97 SE5       30.07F
SIDNEY         PTCLDY    51  49  92 S9        30.13F FOG

...WESTERN AND NORTH CENTRAL NEBRASKA...

CITY           SKY/WX    TMP DP  RH WIND       PRES   REMARKS
VALENTINE      CLEAR     49  43  80 S8        30.08F
AINSWORTH      CLEAR     47  42  82 S12       30.11F
ONEILL         CLEAR     45  43  93 S8        30.17S
BROKEN BOW     CLEAR     46  43  89 S10       30.16F
IMPERIAL       PTCLDY    49  47  93 N9        30.17R
NORTH PLATTE   MOCLDY    52  43  71 VRB3G28   30.15F
MCCOOK         CLOUDY    50  45  83 MISG      30.20S

...EASTERN NEBRASKA...

CITY           SKY/WX    TMP DP  RH WIND       PRES   REMARKS
NORFOLK        CLEAR     44  41  89 S8        30.21F
SO SIOUX CITY  FOG       38  37  97 E5        30.23S VSB 1/2 WCI  34
TEKAMAH        FOG       40  38  93 SW3       30.24S VSB 3/4
ALBION         CLEAR     42  39  89 CALM      30.21F
OMAHA EPPLEY   PTCLDY    45  43  93 S6        30.26S FOG
OFFUTT AFB     MIX PCPN  42  42 100 CALM      30.25S VSB<1/4
MILLARD          N/A     43  42  97 CALM      30.24S FOG
LINCOLN        CLEAR     41  39  93 CALM      30.25F
NEBRASKA CITY  CLEAR     44  42  93 S3        30.26R
BEATRICE       CLEAR     39  38  97 CALM      30.24F
FALLS CITY     CLEAR     41  40  96 CALM      30.25S

...NORTHERN KANSAS...

CITY           SKY/WX    TMP DP  RH WIND       PRES   REMARKS
GOODLAND       CLOUDY    58  54  86 S12       30.18F
HILL CITY      CLOUDY    50  46  86 SE5       30.22F
NORTON         SUNNY     48  43  81 SE9G16    30.19F
PHILLIPSBURG   CLEAR     43  43 100 E3        30.23F
SMITH CENTER   CLEAR     41  41 100 SE7       30.23F
BELOIT         CLEAR     41  41 100 CALM      30.24S
HAYS           CLOUDY    52  45  76 E8        30.23S
RUSSELL        CLOUDY    51  49  92 E6        30.22S
CONCORDIA      CLEAR     44  44 100 SE5       30.24F
SALINA         CLEAR     50  46  86 CALM      30.25S
TOPEKA         CLEAR     45  44  97 CALM      30.25S



USA.gov is the U.S. government's official web portal to all federal, state and local government web resources and services.